Location: Unspecified
(0.0000°N, 0.0000°E)
Time: 10:30:43
(UTC+00:00)

Vanguard 3 - Pass Details

Date: 28 September 2023
Orbit: 507 x 3241 km, 33.3° (Epoch: 06 December)

Event Time Altitude Azimuth Distance (km) Brightness Sun altitude
Rises 10:50:51 0° 217° (SW) 6,065 11.5 74.9°
Reaches altitude 10° 10:55:48 10° 204° (SSW) 5,437 11.5 76.1°
Maximum altitude 11:09:17 26° 154° (SSE) 4,842 11.6 79.4°
Drops below altitude 10° 11:24:10 10° 104° (ESE) 6,084 11.8 83.1°
Sets 11:30:04 0° 93° (E) 6,902 12.0 84.4°
